Home   Weather   Mons   Past weeks

Flag for Belgium Past Weather in Mons, Belgium — Yesterday and Last 2 Weeks

46 °F


Feels Like: 46 °F
Forecast: 40 / 57 °F
Wind: 1 mph from North

Location: Chievres

Current Time: Oct 25, 2016 at 10:34:49 AM

Latest Report: Oct 25, 2016 at 9:55 AM

Visibility: 2 mi

Pressure: 30.18 "Hg

Humidity: 93%

Dew Point: 45 °F

Location of MonsLocation

Past Weather in Mons — Graph


Mons Temperature Yesterday

Maximum temperature yesterday: 52 °F (at 2:55 PM)
Minimum temperature yesterday: 45 °F (at 12:25 AM)
Average temperature yesterday: 48 °F

High & Low Weather Summary for the Past Weeks

High68 °F (Oct 16, 1:55 PM)100% (Oct 11, 12:25 AM)30.27 "Hg (Oct 11, 12:25 AM)
Low36 °F (Oct 11, 8:25 AM)53% (Oct 16, 1:55 PM)29.62 "Hg (Oct 15, 1:25 AM)
Average49 °F87%30.00 "Hg
* Reported Oct 10 9:25 AM — Oct 25 9:25 AM, Mons, Weather by CustomWeather, © 2016

Note: Actual official high and low records may vary slightly from our data, if they occured in-between our weather recording intervals... More about our weather records


Mons Weather History for the Previous 24 Hours

Scroll right to see more
Time TempWeatherWind HumidityBarometerVisibility
9:25 AM
Tue, Oct 25
43 °FFog.2 mph93%30.18 "Hg1 mi
8:55 AM43 °FFog.3 mph100%30.18 "Hg1 mi
8:25 AM45 °FFog.3 mph93%30.15 "Hg1 mi
7:55 AM45 °FFog.2 mph93%30.15 "Hg1 mi
7:25 AM46 °FFog.5 mph93%30.15 "Hg1 mi
6:55 AM48 °FFog.2 mph94%30.12 "Hg1 mi
6:25 AM48 °FFog.3 mph87%30.12 "Hg2 mi
5:55 AM48 °FFog.6 mph94%30.12 "Hg1 mi
5:25 AM48 °FFog.5 mph94%30.09 "Hg2 mi
4:55 AM48 °FFog.5 mph94%30.09 "Hg2 mi
3:55 AM48 °FFog.6 mph94%30.09 "Hg2 mi
3:25 AM48 °FFog.5 mph94%30.07 "Hg1 mi
2:55 AM48 °FFog.7 mph94%30.07 "Hg1 mi
2:25 AM48 °FFog.5 mph100%30.07 "Hg1 mi
1:55 AM48 °FFog.3 mph100%30.04 "Hg1 mi
12:55 AM50 °FFog.5 mph94%30.04 "Hg1 mi
12:25 AM50 °FFog.3 mph94%30.01 "Hg1 mi
11:55 PM
Mon, Oct 24
50 °FFog.2 mph94%30.01 "Hg1 mi
11:25 PM50 °FFog.2 mph94%30.01 "Hg1 mi
10:55 PM50 °FFog.2 mph94%29.98 "Hg1 mi
10:25 PM50 °FFog.2 mph94%29.98 "Hg1 mi
9:55 PM50 °FFog.3 mph94%29.98 "Hg1 mi
9:25 PM50 °FFog.5 mph94%29.95 "Hg1 mi
8:55 PM50 °FFog.5 mph94%29.95 "Hg1 mi
8:25 PM50 °FFog.3 mph94%29.95 "Hg1 mi
7:55 PM50 °FFog.2 mph94%29.95 "Hg1 mi
7:25 PM50 °FFog.2 mph94%29.95 "Hg1 mi
6:55 PM50 °FFog.2 mph94%29.92 "Hg1 mi
6:25 PM50 °FFog.1 mph94%29.92 "Hg2 mi
5:55 PM50 °FFog.1 mph94%29.92 "Hg2 mi
5:25 PM50 °FFog.1 mph94%29.92 "Hg2 mi
4:55 PM50 °FFog.5 mph94%29.89 "Hg2 mi
4:25 PM50 °FFog.5 mph94%29.89 "Hg2 mi
3:55 PM52 °FFog.2 mph88%29.89 "Hg3 mi
3:25 PM52 °FLow clouds.2 mph88%29.89 "Hg3 mi
2:55 PM52 °FLow clouds.1 mph88%29.86 "Hg3 mi
1:55 PM50 °FCool.2 mph94%29.86 "Hg3 mi
1:25 PM50 °FFog.2 mph88%29.86 "Hg3 mi
12:55 PM50 °FFog.2 mph88%29.86 "Hg3 mi
12:25 PM48 °FCool.3 mph94%29.86 "Hg3 mi
11:55 AM48 °FLow clouds.3 mph94%29.86 "Hg3 mi
11:25 AM48 °FFog.5 mph94%29.86 "Hg3 mi
10:55 AM48 °FFog.5 mph94%29.86 "Hg2 mi
10:25 AM46 °FFog.5 mph93%29.86 "Hg2 mi
Weather by CustomWeather, © 2016

See weather overviewHow to use our weather pages